Portada
METAR-TAF:

METAR-TAF

Aeropuertos :

Tafraoui, Argelia

Base aérea

latitud: 35-32-33N, longitud: 000-31-56W, altitud: 112 m

Observación

El informe se hizo hace 20 horas y 1 minutos, a las 15:00 UTC
Viento 12 kt del oeste
Temperatura 17°C
Humedad 68%
Presión 1014 hPa
Visibilidad: 8000 m
Nubes dispersas a una altura de 2300 ft

METAR: DAOL 201500Z 27012KT 8000 SCT023 17/11 Q1014

Hora: 12:01 (11:01 UTC)


TAF: falta

Observaciones y pronósticos meteorológicos de más de 4000 aeropuertos (mensajes METAR y TAF).

Los puntos amarillos y rojos representan las estaciones disponibles.

Ponga el ratón en el punto deseado para ver el nombre de la estación.

Haga clic para ver las observaciones y los pronósticos meteorológicos.

Para cambiar el mapa : haga clic en los botones verdes con una cruz de color negro para hacer un zoom, en el botón verde con un guión para alejar o en las flechas verdes para mapas adyacentes.


METAR-TAF: